• Em Portugal
  • Lista de países
  • Para 7 dias
  • Temperatura da água
  • Mapas de satélite
  • Mapa do tempo
  • Widgets de tempo
  • user-avatar
    Iniciar Sessão

    Previsão horária em Gronajny

    Hoje, 20 Agosto, Segunda-feira

    Tempo Temperatura Precipitação Vento Pressão Humidade
    00:00 +19°C° 0 mm 2 m/s 757 mmHg 72%
    01:00 +19°C° 0 mm 2 m/s 757 mmHg 69%
    02:00 +19°C° 0 mm 3 m/s 757 mmHg 68%
    03:00 +19°C° 0 mm 3 m/s 756 mmHg 67%
    04:00 +19°C° 0 mm 3 m/s 756 mmHg 65%
    05:00 +20°C° 0 mm 4 m/s 756 mmHg 63%
    06:00 +21°C° 0 mm 4 m/s 755 mmHg 61%
    07:00 +22°C° 0 mm 4 m/s 755 mmHg 59%
    08:00 +25°C° 0 mm 4 m/s 755 mmHg 56%
    09:00 +27°C° 0 mm 5 m/s 755 mmHg 52%
    10:00 +28°C° 0 mm 5 m/s 755 mmHg 49%
    11:00 +28°C° 0 mm 5 m/s 755 mmHg 49%
    12:00 +29°C° 0 mm 6 m/s 755 mmHg 48%
    13:00 +29°C° 0 mm 6 m/s 754 mmHg 48%
    14:00 +28°C° 0,1 mm 6 m/s 754 mmHg 54%
    15:00 +26°C° 0,1 mm 6 m/s 754 mmHg 61%
    16:00 +25°C° 0,1 mm 5 m/s 754 mmHg 67%
    17:00 +23°C° 0 mm 5 m/s 754 mmHg 70%
    18:00 +22°C° 0 mm 5 m/s 755 mmHg 73%
    19:00 +21°C° 0 mm 5 m/s 755 mmHg 76%
    20:00 +20°C° 0 mm 5 m/s 755 mmHg 78%
    21:00 +19°C° 0 mm 5 m/s 755 mmHg 79%
    22:00 +17°C° 0 mm 5 m/s 755 mmHg 81%
    23:00 +17°C° 0 mm 5 m/s 755 mmHg 80%

    Amanhã, 21 Agosto, Terça-feira

    Tempo Temperatura Precipitação Vento Pressão Humidade
    00:00 +16°C° 0 mm 5 m/s 756 mmHg 79%
    01:00 +17°C° 0 mm 4 m/s 756 mmHg 78%
    02:00 +15°C° 0 mm 4 m/s 756 mmHg 78%
    03:00 +15°C° 0 mm 4 m/s 756 mmHg 79%
    04:00 +14°C° 0 mm 4 m/s 756 mmHg 79%
    05:00 +15°C° 0 mm 4 m/s 757 mmHg 76%
    06:00 +16°C° 0 mm 5 m/s 757 mmHg 72%
    07:00 +17°C° 0 mm 5 m/s 758 mmHg 69%
    08:00 +19°C° 0 mm 5 m/s 758 mmHg 64%
    09:00 +21°C° 0 mm 5 m/s 759 mmHg 59%
    10:00 +22°C° 0 mm 4 m/s 759 mmHg 54%
    11:00 +22°C° 0 mm 4 m/s 759 mmHg 52%
    12:00 +23°C° 0 mm 4 m/s 759 mmHg 50%
    13:00 +23°C° 0 mm 4 m/s 759 mmHg 47%
    14:00 +23°C° 0 mm 4 m/s 760 mmHg 49%
    15:00 +23°C° 0 mm 4 m/s 760 mmHg 50%
    16:00 +22°C° 0 mm 3 m/s 760 mmHg 52%
    17:00 +21°C° 0 mm 3 m/s 760 mmHg 59%
    18:00 +19°C° 0 mm 3 m/s 760 mmHg 66%
    19:00 +18°C° 0 mm 2 m/s 760 mmHg 73%
    20:00 +17°C° 0 mm 2 m/s 761 mmHg 76%
    21:00 +16°C° 0 mm 2 m/s 761 mmHg 80%
    22:00 +15°C° 0 mm 1 m/s 761 mmHg 83%
    23:00 +15°C° 0 mm 1 m/s 761 mmHg 84%

    Depois de amanhã, 22 Agosto, Quarta-feira

    Tempo Temperatura Precipitação Vento Pressão Humidade
    00:00 +14°C° 0 mm 1 m/s 761 mmHg 86%
    01:00 +14°C° 0 mm 1 m/s 762 mmHg 87%
    02:00 +14°C° 0 mm 1 m/s 762 mmHg 88%
    03:00 +13°C° 0 mm 2 m/s 762 mmHg 88%
    04:00 +13°C° 0 mm 2 m/s 762 mmHg 89%
    05:00 +14°C° 0 mm 2 m/s 762 mmHg 84%
    06:00 +15°C° 0 mm 2 m/s 762 mmHg 79%
    07:00 +17°C° 0 mm 3 m/s 762 mmHg 74%
    08:00 +18°C° 0 mm 3 m/s 762 mmHg 67%
    09:00 +20°C° 0 mm 3 m/s 762 mmHg 61%
    10:00 +22°C° 0 mm 3 m/s 762 mmHg 54%
    11:00 +24°C° 0 mm 3 m/s 762 mmHg 52%
    12:00 +24°C° 0 mm 3 m/s 761 mmHg 49%
    13:00 +25°C° 0 mm 3 m/s 761 mmHg 46%
    14:00 +25°C° 0 mm 3 m/s 760 mmHg 46%
    15:00 +26°C° 0 mm 3 m/s 760 mmHg 47%
    16:00 +26°C° 0 mm 3 m/s 760 mmHg 47%
    17:00 +24°C° 0 mm 3 m/s 759 mmHg 52%
    18:00 +22°C° 0 mm 3 m/s 759 mmHg 57%
    19:00 +20°C° 0 mm 3 m/s 759 mmHg 63%
    20:00 +20°C° 0 mm 3 m/s 759 mmHg 62%
    21:00 +19°C° 0 mm 4 m/s 759 mmHg 62%
    22:00 +18°C° 0 mm 4 m/s 759 mmHg 62%
    23:00 +18°C° 0 mm 4 m/s 759 mmHg 61%

    23 Agosto, Quinta-feira

    Tempo Temperatura Precipitação Vento Pressão Humidade
    00:00 +18°C° 0 mm 4 m/s 759 mmHg 61%
    01:00 +17°C° 0 mm 4 m/s 758 mmHg 60%
    02:00 +17°C° 0 mm 4 m/s 758 mmHg 62%
    03:00 +17°C° 0 mm 4 m/s 758 mmHg 64%
    04:00 +17°C° 0 mm 4 m/s 757 mmHg 65%
    05:00 +18°C° 0 mm 4 m/s 757 mmHg 67%
    06:00 +19°C° 0 mm 4 m/s 757 mmHg 68%
    07:00 +19°C° 0 mm 4 m/s 757 mmHg 69%
    08:00 +21°C° 0 mm 5 m/s 757 mmHg 65%
    09:00 +23°C° 0 mm 5 m/s 757 mmHg 61%
    10:00 +26°C° 0 mm 5 m/s 757 mmHg 56%
    11:00 +26°C° 0 mm 5 m/s 756 mmHg 54%
    12:00 +27°C° 0 mm 5 m/s 756 mmHg 53%
    13:00 +27°C° 0 mm 5 m/s 755 mmHg 51%
    14:00 +28°C° 0 mm 4 m/s 755 mmHg 51%
    15:00 +28°C° 0 mm 4 m/s 755 mmHg 51%
    16:00 +28°C° 0 mm 4 m/s 755 mmHg 52%
    17:00 +27°C° 0 mm 3 m/s 754 mmHg 56%
    18:00 +26°C° 0 mm 3 m/s 754 mmHg 59%
    19:00 +25°C° 0 mm 3 m/s 754 mmHg 63%
    20:00 +24°C° 0 mm 3 m/s 754 mmHg 64%
    21:00 +23°C° 0 mm 4 m/s 753 mmHg 64%
    22:00 +22°C° 0 mm 4 m/s 753 mmHg 65%
    23:00 +22°C° 0,1 mm 4 m/s 753 mmHg 65%

    24 Agosto, Sexta-feira

    Tempo Temperatura Precipitação Vento Pressão Humidade
    00:00 +22°C° 0,1 mm 4 m/s 753 mmHg 65%
    01:00 +22°C° 0,1 mm 4 m/s 752 mmHg 64%
    02:00 +21°C° 0 mm 4 m/s 752 mmHg 68%
    03:00 +21°C° 0 mm 4 m/s 752 mmHg 71%
    04:00 +20°C° 0 mm 4 m/s 751 mmHg 75%
    05:00 +21°C° 0,1 mm 4 m/s 751 mmHg 75%
    06:00 +21°C° 0,1 mm 4 m/s 751 mmHg 76%
    07:00 +22°C° 0,1 mm 4 m/s 751 mmHg 77%
    08:00 +25°C° 0,1 mm 3 m/s 751 mmHg 72%
    09:00 +26°C° 0,1 mm 3 m/s 751 mmHg 67%
    10:00 +28°C° 0,1 mm 3 m/s 751 mmHg 62%
    11:00 +28°C° 1 mm 3 m/s 751 mmHg 60%
    12:00 +29°C° 1 mm 3 m/s 750 mmHg 58%
    13:00 +29°C° 1 mm 3 m/s 750 mmHg 56%
    14:00 +27°C° 1,4 mm 3 m/s 750 mmHg 64%
    15:00 +26°C° 1,4 mm 3 m/s 750 mmHg 71%
    16:00 +25°C° 1,4 mm 4 m/s 750 mmHg 78%
    17:00 +22°C° 2,4 mm 3 m/s 751 mmHg 82%
    18:00 +21°C° 2,4 mm 3 m/s 751 mmHg 87%
    19:00 +20°C° 2,4 mm 3 m/s 751 mmHg 92%
    20:00 +19°C° 0,2 mm 3 m/s 751 mmHg 92%
    21:00 +19°C° 0,2 mm 3 m/s 751 mmHg 92%
    22:00 +19°C° 0,2 mm 3 m/s 751 mmHg 92%
    23:00 +18°C° 0 mm 3 m/s 751 mmHg 91%

    25 Agosto, Sábado

    Tempo Temperatura Precipitação Vento Pressão Humidade
    00:00 +18°C° 0 mm 3 m/s 751 mmHg 90%
    01:00 +18°C° 0 mm 3 m/s 752 mmHg 90%
    02:00 +17°C° 0,1 mm 3 m/s 752 mmHg 89%
    03:00 +17°C° 0,1 mm 3 m/s 752 mmHg 89%
    04:00 +17°C° 0,1 mm 3 m/s 752 mmHg 88%
    05:00 +17°C° 0,2 mm 3 m/s 752 mmHg 87%
    06:00 +17°C° 0,2 mm 3 m/s 752 mmHg 87%
    07:00 +17°C° 0,2 mm 3 m/s 753 mmHg 86%
    08:00 +16°C° 0,5 mm 3 m/s 753 mmHg 87%
    09:00 +15°C° 0,5 mm 4 m/s 753 mmHg 87%
    10:00 +15°C° 0,5 mm 4 m/s 754 mmHg 88%
    11:00 +15°C° 0,9 mm 4 m/s 754 mmHg 88%
    12:00 +15°C° 0,9 mm 4 m/s 754 mmHg 87%
    13:00 +14°C° 0,9 mm 3 m/s 754 mmHg 87%
    14:00 +16°C° 0,4 mm 3 m/s 754 mmHg 84%
    15:00 +16°C° 0,4 mm 3 m/s 754 mmHg 80%
    16:00 +17°C° 0,4 mm 2 m/s 754 mmHg 76%
    17:00 +16°C° 0 mm 2 m/s 754 mmHg 78%
    18:00 +16°C° 0 mm 1 m/s 754 mmHg 79%
    19:00 +15°C° 0 mm 1 m/s 755 mmHg 81%
    20:00 +15°C° 0 mm 1 m/s 755 mmHg 82%
    21:00 +14°C° 0 mm 1 m/s 755 mmHg 82%
    22:00 +14°C° 0 mm 1 m/s 755 mmHg 83%
    23:00 +14°C° 0 mm 2 m/s 755 mmHg 84%
    Mostrar mais